Regional Weather Roundup
Issued by NWS

Home | Current Version | Previous Version | Text Only | Print | Product List | Glossary Off
Versions: 1 2 3 4 5 6 7 8 9 10 11 12 13 14 15 16 17 18 19 20 21 22 23 24 25 26 27 28 29 30 31 32 33 34 35 36 37 38 39 40 41 42 43 44 45 46 47 48 49 50

000
ASUS43 KLOT 090808
RWRIL

ILLINOIS REGIONAL WEATHER ROUNDUP
NATIONAL WEATHER SERVICE CHICAGO/ROMEOVILLE IL
200 AM CST TUE FEB 09 2016

NOTE: "FAIR" INDICATES FEW OR NO CLOUDS BELOW 12,000 FEET WITH NO
SIGNIFICANT WEATHER AND/OR OBSTRUCTIONS TO VISIBILITY.

* THESE STATIONS ARE NOT UNDER NWS QUALITY CONTROL. THEY ALSO MAY NOT
  REPORT WEATHER SUCH AS PRECIPITATION OR FOG.

ILZ001-002-007-009-015-016-024-090900-
NORTHWEST ILLINOIS

CITY           SKY/WX    TMP DP  RH WIND       PRES   REMARKS
MOLINE         LGT SNOW  17  10  74 NW14G23   29.86S WCI   3
STERLING*      CLOUDY    18   9  68 NW12G18   29.79S WCI   5
SAVANNA*       LGT SNOW  16  11  81 NW12      29.84S WCI   3
$$

ILZ003-004-008-010-011-017-018-090900-
NORTH CENTRAL ILLINOIS

CITY           SKY/WX    TMP DP  RH WIND       PRES   REMARKS
ROCKFORD       FLURRIES  18  10  71 N13       29.79S WCI   5
FREEPORT*      LGT SNOW  15  11  85 NW10      29.81S WCI   2
ROCHELLE*      CLOUDY    18  12  77 NW12      29.78S WCI   5
DE KALB*       CLOUDY    18  12  77 NW12G18   29.76S WCI   5
$$

ILZ005-006-012>014-019>023-090900-
NORTHEAST ILLINOIS

CITY           SKY/WX    TMP DP  RH WIND       PRES   REMARKS
CHICAGO-OHARE  LGT SNOW  19  15  84 NW14      29.72S FOG     WCI   6
CHICAGO-MIDWAY LGT SNOW  21  14  74 NW12      29.73S FOG     WCI   9
AURORA         CLOUDY    20  13  74 NW13      29.75F WCI   7
LANSING*       LGT SNOW  21  18  86 NW10      29.73S WCI  10
JOLIET*        LGT SNOW  23  16  75 NW8       29.76S WCI  14
WAUKEGAN       LGT SNOW  18  14  84 NW10G21   29.71S FOG     WCI   6
DUPAGE AIRPORT FLURRIES  19  12  74 NW13      29.73S WCI   6
KANKAKEE*      FLURRIES  22  17  79 W12       29.75F WCI  11
WHEELING       LGT SNOW  18  14  84 NW15G24   29.74R FOG     WCI   4
MORRIS*        CLOUDY    22  15  75 NW13      29.74S WCI  10
ROMEOVILLE*    LGT SNOW  21  15  79 NW10      29.74S WCI   9
NORTHERLY ISL    N/A     21  16  81 NW10        N/A  WCI  10
$$

LMZ740>746-090900-
SOUTHERN LAKE MICHIGAN

STATION/POSITION SKY/WX   TEMP    WIND        PRES    VSBY  WAVE
                          AIR SEA DIR/SP/G                  HT/PER
                          (F)     (DEG/KT/KT) (MB)    (MI)  (FT/S)
HARRISON CRIB              22     300/ 16/ 18   N/A
BURNHAM HARBOR             21     290/  8/ 18   N/A
CALUMET HARBOR             21     280/  7/ 14 1006.1F
BURNS HARBOR               25     290/ 14/ 19 1006.8S
MICHIGAN CITY              25     270/ 21/ 23   N/A
$$

ILZ025>027-034>036-040-047-049-050-058-095>099-090900-
WEST-CENTRAL ILLINOIS

CITY           SKY/WX    TMP DP  RH WIND       PRES   REMARKS
QUINCY         LGT SNOW  17  12  80 NW16      29.90S WCI   2
GALESBURG*     LGT SNOW  16  13  89 NW9G17    29.85S WCI   4
MACOMB*        FLURRIES  17  14  87 NW16      29.89F WCI   2
JACKSONVILLE*  LGT SNOW  20  14  78 NW17G24   29.88S WCI   5
PITTSFIELD*    FLURRIES  19  14  81 NW13G18   29.90F WCI   6
$$

ILZ028>032-037-038-041>044-048-051>054-059>061-090900-
CENTRAL ILLINOIS

CITY           SKY/WX    TMP DP  RH WIND       PRES   REMARKS
PONTIAC        CLOUDY    21  15  79 W20       29.79S WCI   5
BLOOMINGTON    CLOUDY    18  12  77 NW14      29.80S WCI   4
DECATUR        FLURRIES  19  11  70 NW13G18   29.82F WCI   6
PEORIA         LGT SNOW  17  11  77 NW9       29.83F WCI   6
LACON*         FLURRIES  18  11  73 NW10G18   29.82S WCI   6
LINCOLN*       CLOUDY    19  12  72 NW9G20    29.84S WCI   9
SPRINGFIELD    FLURRIES  19  13  77 W14       29.86S WCI   6
TAYLORVILLE    FLURRIES  19  12  73 W16       29.85F WCI   5
$$

ILZ033-039-045-046-055>057-062-063-090900-
EAST-CENTRAL ILLINOIS

CITY           SKY/WX    TMP DP  RH WIND       PRES   REMARKS
CHAMPAIGN      CLOUDY    19  13  77 W16       29.79F WCI   4
RANTOUL*       CLOUDY    21  15  79 W15       29.78S WCI   7
MATTOON        LGT SNOW  17  12  80 NW14      29.81S WCI   3
PARIS*         CLOUDY    19  16  88 W12       29.79F WCI   7
$$

ILZ079-100>102-090900-
SOUTHWEST ILLINOIS

CITY           SKY/WX    TMP DP  RH WIND       PRES   REMARKS
ALTON          LGT SNOW  19  14  80 NW14G22   29.91S WCI   5
BELLEVILLE     FLURRIES  21  14  73 NW17G24   29.89S WCI   7
CAHOKIA*       LGT SNOW  21  14  74 NW12      29.92S WCI   9
SPARTA*        CLOUDY    22  12  65 NW13G21   29.91S WCI  10
$$

ILZ064>066-069>071-074>076-080>082-084>086-088>090-092>094-090900-
SOUTH-CENTRAL ILLINOIS

CITY           SKY/WX    TMP DP  RH WIND       PRES   REMARKS
CARBONDALE     CLOUDY    24  12  60 NW15      29.90S WCI  11
CAIRO*         CLOUDY    28  18  68 NW12G22   29.90F WCI  17
EFFINGHAM*     LGT SNOW  19  16  88 W10       29.86S WCI   8
MARION         FLURRIES  23  18  80 NW3       29.90S
MT. VERNON     CLOUDY    21  10  63 W5        29.88S WCI  15
CENTRALIA*     CLOUDY    22  16  77 NW17      29.87S WCI   8
SALEM*         LGT SNOW  21  14  75 NW12      29.87S WCI   9
METROPOLIS*    LGT SNOW  24  23  94 NW6       29.91S WCI  17
$$

ILZ067-068-072-073-078-083-087-091-090900-
SOUTHEAST ILLINOIS

CITY           SKY/WX    TMP DP  RH WIND       PRES   REMARKS
LAWRENCEVILLE  FLURRIES  20  14  77 NW15      29.85S WCI   6
FLORA*         FLURRIES  22  17  81 W10       29.87S WCI  11
FAIRFIELD*     LGT SNOW  21  16  83 W6        29.87S WCI  13
HARRISBURG*    FLURRIES  22  19  89 NW3       29.90S
ROBINSON*      CLOUDY    19  14  80 W15       29.85S WCI   5
CARMI*         FLURRIES  21  16  81 NW12G18   29.88S WCI   9
$$

ABBREVIATIONS USED IN REMARKS
   TC - TEMPERATURE IN CELSIUS
  WCI - WIND CHILL INDEX
   HX - HEAT INDEX
  VSB - VISIBILITY
$$




USA.gov is the U.S. government's official web portal to all federal, state and local government web resources and services.